FW9291 Weather Reports


time (UTC)temp
C
wind
direction
speed
KPH
gust
KPH
rain 1hr
cm
rain 24hr
cm
rain mn
cm
humidity
%
barometer
mb
20260506051133 17 13 6.4 17.7 0.00 0.00 0.00 78 1026.2
20260506050645 17 18 8.0 17.7 0.00 0.00 0.00 78 1026.1
20260506050134 17 36 8.0 20.9 0.00 0.00 0.00 79 1026.1
20260506044631 17 26 9.7 20.9 0.00 0.00 0.00 79 1026.1
20260506044133 17 5 9.7 24.1 0.00 0.00 0.00 80 1026.1
20260506043630 17 21 11.3 25.7 0.00 0.00 0.00 80 1026.0
20260506043130 17 42 11.3 25.7 0.00 0.00 0.00 79 1026.1
20260506042636 17 25 11.3 22.5 0.00 0.00 0.00 79 1026.0
20260506042130 17 17 9.7 20.9 0.00 0.00 0.00 78 1026.0
20260506041130 18 5 9.7 22.5 0.00 0.00 0.00 78 1026.1
20260506040629 18 28 11.3 22.5 0.00 0.00 0.00 77 1026.1
20260506040126 18 55 9.7 22.5 0.00 0.00 0.00 78 1026.0
20260506035627 18 11 11.3 22.5 0.00 0.00 0.00 78 1026.1
20260506035126 18 0 11.3 20.9 0.00 0.00 0.00 78 1026.2
20260506034627 18 32 11.3 20.9 0.00 0.00 0.00 77 1026.3
20260506034127 18 23 11.3 20.9 0.00 0.00 0.00 78 1026.2
20260506033126 18 19 9.7 20.9 0.00 0.00 0.00 75 1026.3
20260506032627 18 14 12.9 25.7 0.00 0.00 0.00 74 1026.3
20260506032126 19 40 14.5 25.7 0.00 0.00 0.00 73 1026.4
20260506031625 19 24 12.9 20.9 0.00 0.00 0.00 73 1026.4
20260506031122 19 16 11.3 27.4 0.00 0.00 0.00 73 1026.4
20260506030615 19 37 9.7 27.4 0.00 0.00 0.00 72 1026.3
20260506030113 19 27 9.7 20.9 0.00 0.00 0.00 72 1026.4
20260506025609 19 351 11.3 22.5 0.00 0.00 0.00 72 1026.4
20260506025107 19 355 11.3 22.5 0.00 0.00 0.00 72 1026.3
20260506024609 19 5 8.0 17.7 0.00 0.00 0.00 72 1026.4
20260506023609 19 32 9.7 19.3 0.00 0.00 0.00 72 1026.4
20260506023108 19 49 9.7 20.9 0.00 0.00 0.00 72 1026.4
20260506022108 19 27 8.0 19.3 0.00 0.00 0.00 71 1026.5
20260506021607 19 351 9.7 19.3 0.00 0.00 0.00 72 1026.5
20260506021104 19 355 9.7 20.9 0.00 0.00 0.00 73 1026.6
20260506020605 19 12 8.0 22.5 0.00 0.00 0.00 72 1026.6
20260506020105 19 29 8.0 22.5 0.00 0.00 0.00 72 1026.5
20260506015607 19 57 8.0 17.7 0.00 0.00 0.00 72 1026.5
20260506014057 18 64 8.0 16.1 0.00 0.00 0.00 76 1026.9
20260506013554 18 44 8.0 17.7 0.00 0.00 0.00 77 1026.9
20260506013055 18 42 8.0 20.9 0.00 0.00 0.00 77 1026.9
20260506012555 18 338 9.7 22.5 0.00 0.00 0.00 77 1026.9
20260506012053 17 40 11.3 22.5 0.00 0.00 0.00 80 1026.8
20260506011554 17 58 12.9 24.1 0.00 0.00 0.00 81 1026.9
20260506010555 17 36 11.3 20.9 0.00 0.00 0.00 80 1026.9
20260506010055 17 60 11.3 19.3 0.00 0.00 0.00 79 1027.1
20260506005554 17 61 9.7 17.7 0.00 0.00 0.00 77 1027.1
20260506005054 17 37 8.0 16.1 0.00 0.00 0.00 75 1027.1
20260506004555 17 51 8.0 17.7 0.00 0.00 0.00 75 1027.1
20260506004049 18 36 9.7 20.9 0.00 0.00 0.00 74 1027.1
20260506003551 18 342 11.3 22.5 0.00 0.00 0.00 72 1027.1
20260506003050 19 5 9.7 22.5 0.00 0.00 0.00 70 1027.1
20260506002552 19 49 9.7 19.3 0.00 0.00 0.00 70 1027.3
20260506002050 20 135 9.7 19.3 0.00 0.00 0.00 67 1027.4
20260506001551 20 28 9.7 20.9 0.00 0.00 0.00 63 1027.3
20260506001050 20 9 9.7 20.9 0.00 0.00 0.00 64 1027.5
20260506000552 20 29 8.0 14.5 0.00 0.00 0.00 67 1027.6
20260506000100 18 32 6.4 12.9 0.00 0.00 0.00 70 1027.7
20260505235550 17 63 6.4 12.9 0.00 0.00 0.00 74 1027.9
20260505235051 17 66 4.8 11.3 0.00 0.00 0.00 76 1028.0
20260505234551 17 96 4.8 8.0 0.00 0.00 0.00 76 1028.1
20260505234051 16 81 4.8 11.3 0.00 0.00 0.00 76 1028.1
20260505233549 16 59 4.8 11.3 0.00 0.00 0.00 76 1028.2
20260505233049 16 64 4.8 11.3 0.00 0.00 0.00 76 1028.3
20260505232549 16 69 4.8 11.3 0.00 0.00 0.00 75 1028.4
20260505232047 16 52 4.8 9.7 0.00 0.00 0.00 76 1028.4
20260505231548 16 54 4.8 9.7 0.00 0.00 0.00 76 1028.5
20260505230550 15 47 4.8 9.7 0.00 0.00 0.00 79 1028.6
20260505230050 15 63 4.8 9.7 0.00 0.00 0.00 80 1028.6
20260505225550 14 42 4.8 8.0 0.00 0.00 0.00 80 1028.7
20260505225046 14 58 4.8 9.7 0.00 0.00 0.00 79 1028.7
20260505224547 14 53 4.8 9.7 0.00 0.00 0.00 79 1028.7
20260505223546 15 90 3.2 6.4 0.00 0.00 0.00 78 1028.8
20260505223045 15 80 1.6 4.8 0.00 0.00 0.00 79 1028.9
20260505222045 14 126 0.0 3.2 0.00 0.00 0.00 85 1028.9
20260505221541 13 192 0.0 3.2 0.00 0.00 0.00 87 1028.9
20260505221040 13 192 0.0 3.2 0.00 0.00 0.00 88 1028.8
20260505220540 12 193 0.0 1.6 0.00 0.00 0.00 89 1029.1
20260505215540 11 192 1.6 4.8 0.00 0.00 0.00 91 1029.3
20260505215041 11 173 0.0 3.2 0.00 0.00 0.00 92 1029.3
20260505214540 11 173 0.0 1.6 0.00 0.00 0.00 93 1029.4
20260505214038 11 173 0.0 3.2 0.00 0.00 0.00 93 1029.3
20260505213539 10 173 1.6 3.2 0.00 0.00 0.00 93 1029.3
20260505213039 10 173 1.6 3.2 0.00 0.00 0.00 93 1029.5
20260505212540 10 173 0.0 3.2 0.00 0.00 0.00 94 1029.6
20260505211539 8 173 1.6 4.8 0.00 0.00 0.00 94 1029.7
20260505211039 8 167 0.0 4.8 0.00 0.00 0.00 94 1029.7
20260505210540 8 150 0.0 0.0 0.00 0.00 0.00 93 1029.6
20260505205536 8 150 0.0 0.0 0.00 0.00 0.00 94 1029.7
20260505205039 8 150 0.0 0.0 0.00 0.00 0.00 94 1029.7
20260505204541 7 150 0.0 0.0 0.00 0.00 0.00 94 1029.8
20260505204033 7 150 0.0 0.0 0.00 0.00 0.00 94 1029.8
20260505203535 7 150 0.0 0.0 0.00 0.00 0.00 94 1029.8
20260505203031 7 150 0.0 0.0 0.00 0.00 0.00 94 1029.8
20260505202531 7 150 0.0 0.0 0.00 0.00 0.00 94 1029.7
20260505202033 7 150 0.0 0.0 0.00 0.00 0.00 94 1029.7
20260505201532 7 150 0.0 0.0 0.00 0.03 0.00 94 1029.6
20260505201035 7 150 0.0 0.0 0.00 0.03 0.00 94 1029.5
20260505200531 7 150 0.0 0.0 0.00 0.03 0.00 94 1029.5
20260505200032 6 150 0.0 0.0 0.00 0.03 0.00 94 1029.4
20260505195530 6 150 0.0 0.0 0.00 0.03 0.00 94 1029.4
20260505195039 6 150 0.0 0.0 0.00 0.03 0.00 94 1029.3
20260505194531 6 150 0.0 0.0 0.00 0.03 0.00 94 1029.3
20260505194031 6 150 0.0 0.0 0.00 0.03 0.00 94 1029.3
20260505192534 5 150 0.0 0.0 0.00 0.03 0.00 93 1029.3
20260505191514 5 150 0.0 0.0 0.00 0.03 0.00 93 1029.2
20260505190518 5 149 0.0 0.0 0.00 0.03 0.00 93 1029.1
20260505190020 5 150 0.0 0.0 0.00 0.03 0.00 93 1029.1
20260505185513 5 150 0.0 0.0 0.00 0.03 0.00 93 1029.2
20260505185013 5 150 0.0 0.0 0.00 0.03 0.00 93 1029.3
20260505184013 5 150 0.0 0.0 0.00 0.03 0.00 93 1029.2
20260505183513 5 150 0.0 0.0 0.00 0.03 0.00 93 1029.5
20260505183012 5 150 0.0 0.0 0.00 0.03 0.00 93 1029.3
20260505182512 5 149 0.0 0.0 0.00 0.03 0.00 93 1029.2
20260505182014 5 150 0.0 0.0 0.00 0.03 0.00 93 1029.2
20260505181005 6 149 0.0 0.0 0.00 0.03 0.00 93 1029.2
20260505180505 6 150 0.0 0.0 0.00 0.03 0.00 93 1029.2
20260505175504 6 150 0.0 0.0 0.00 0.03 0.00 93 1029.2
20260505175005 6 150 0.0 0.0 0.00 0.03 0.00 93 1029.4
20260505174519 6 150 0.0 0.0 0.00 0.03 0.00 93 1029.3
20260505174008 6 149 0.0 0.0 0.00 0.03 0.00 93 1029.4
20260505173506 6 150 0.0 0.0 0.00 0.03 0.00 93 1029.5
20260505173007 6 150 0.0 0.0 0.00 0.03 0.00 93 1029.5
20260505172505 6 150 0.0 0.0 0.00 0.03 0.00 93 1029.3
20260505171505 6 150 0.0 0.0 0.00 0.03 0.00 93 1029.4
20260505170504 6 150 0.0 0.0 0.00 0.03 0.00 93 1029.3
20260505170003 6 150 0.0 0.0 0.00 0.03 0.00 93 1029.3
20260505164502 6 150 0.0 4.8 0.00 0.03 0.00 93 1029.2
20260505164005 6 150 0.0 4.8 0.00 0.03 0.00 93 1029.3
20260505163502 6 123 0.0 0.0 0.00 0.03 0.00 93 1029.4
20260505163006 6 122 0.0 0.0 0.00 0.03 0.00 93 1029.5
20260505162502 6 123 0.0 0.0 0.00 0.03 0.00 93 1029.5
20260505162002 6 123 0.0 0.0 0.00 0.03 0.00 93 1029.4
20260505161502 6 123 0.0 1.6 0.00 0.03 0.00 93 1029.5
20260505161003 6 123 1.6 3.2 0.00 0.03 0.00 93 1029.5
20260505160500 6 123 1.6 3.2 0.00 0.03 0.00 93 1029.4
20260505152954 6 123 0.0 0.0 0.00 0.03 0.00 93 1029.5
20260505151958 6 123 0.0 0.0 0.00 0.03 0.00 93 1029.6
20260505151453 6 123 0.0 0.0 0.00 0.03 0.00 93 1029.7
20260505150952 6 123 0.0 0.0 0.00 0.03 0.00 93 1029.8
20260505150455 6 122 0.0 0.0 0.00 0.03 0.00 93 1029.8
20260505140445 6 123 0.0 1.6 0.00 0.03 0.00 92 1030.2
20260505124932 7 33 1.6 4.8 0.00 0.03 0.00 92 1030.4
20260505124431 7 311 1.6 3.2 0.00 0.03 0.00 92 1030.4
20260505123431 7 311 1.6 3.2 0.00 0.03 0.00 92 1030.6
20260505122932 7 311 0.0 3.2 0.00 0.03 0.00 92 1030.5
20260505122434 7 311 1.6 3.2 0.00 0.03 0.00 92 1030.6
20260505121936 7 311 1.6 4.8 0.00 0.03 0.00 92 1030.6
20260505121434 7 311 1.6 4.8 0.00 0.03 0.00 91 1030.7
20260505120433 7 311 1.6 4.8 0.00 0.03 0.00 92 1030.7
20260505115432 7 40 0.0 3.2 0.00 0.03 0.03 92 1030.7
20260505114932 7 40 0.0 0.0 0.00 0.03 0.03 91 1030.7
20260505114432 7 40 0.0 0.0 0.00 0.03 0.03 91 1030.8
20260505113929 7 40 0.0 0.0 0.00 0.03 0.03 92 1030.8
20260505113430 7 41 0.0 0.0 0.00 0.03 0.03 92 1031.0
20260505112930 7 41 0.0 0.0 0.00 0.03 0.03 91 1031.1
20260505112430 7 41 0.0 0.0 0.00 0.03 0.03 91 1031.0
20260505111929 7 40 0.0 0.0 0.00 0.03 0.03 91 1031.0
20260505111429 7 40 0.0 0.0 0.00 0.03 0.03 91 1031.2
20260505110927 7 40 0.0 0.0 0.00 0.03 0.03 91 1031.3
20260505110435 7 40 0.0 0.0 0.00 0.03 0.03 91 1031.4
20260505101913 8 40 0.0 0.0 0.00 0.03 0.03 91 1031.7
20260505101413 8 41 0.0 0.0 0.00 0.03 0.03 90 1031.7
20260505100914 8 41 0.0 0.0 0.00 0.03 0.03 91 1031.7
20260505100412 8 41 0.0 0.0 0.00 0.03 0.03 90 1031.7
20260505095913 8 40 0.0 0.0 0.00 0.03 0.03 90 1031.7
20260505094911 8 40 0.0 0.0 0.00 0.03 0.03 90 1031.7
20260505094411 8 40 0.0 0.0 0.00 0.03 0.03 90 1031.8
20260505093910 8 41 0.0 0.0 0.00 0.03 0.03 90 1031.7
20260505093412 8 40 0.0 0.0 0.00 0.03 0.03 90 1031.7
20260505092913 8 41 0.0 0.0 0.00 0.03 0.03 90 1031.5
20260505092410 8 40 0.0 0.0 0.00 0.03 0.03 89 1031.6
20260505091910 8 40 0.0 0.0 0.00 0.03 0.03 90 1031.7
20260505091409 8 41 0.0 0.0 0.00 0.03 0.03 89 1031.7
20260505090407 8 40 0.0 0.0 0.00 0.03 0.03 89 1031.7
20260505085904 9 41 0.0 0.0 0.00 0.03 0.03 89 1031.6
20260505085407 9 41 0.0 0.0 0.00 0.03 0.03 89 1031.7
20260505084904 9 41 0.0 0.0 0.00 0.03 0.03 89 1031.6
20260505084404 9 41 0.0 0.0 0.00 0.03 0.03 89 1031.6
20260505083904 9 41 0.0 0.0 0.00 0.03 0.03 89 1031.5
20260505083405 9 40 0.0 0.0 0.00 0.03 0.03 92 1031.5
20260505082907 9 41 0.0 0.0 0.00 0.03 0.03 89 1031.6
20260505082403 9 40 0.0 0.0 0.00 0.03 0.03 89 1031.5
20260505081858 9 41 0.0 0.0 0.00 0.03 0.03 89 1031.5
20260505081402 9 40 0.0 0.0 0.00 0.03 0.03 88 1031.5
20260505080359 10 40 0.0 0.0 0.00 0.03 0.03 88 1031.5
20260505075354 10 41 0.0 0.0 0.00 0.03 0.03 88 1031.5
20260505074855 10 40 0.0 0.0 0.00 0.03 0.03 88 1031.5
20260505074354 10 40 0.0 0.0 0.00 0.03 0.03 87 1031.4
20260505073857 10 40 0.0 0.0 0.00 0.03 0.03 87 1031.5
20260505073350 10 40 0.0 0.0 0.00 0.03 0.03 87 1031.4
20260505072853 10 40 0.0 0.0 0.00 0.03 0.03 87 1031.4
20260505072350 10 41 0.0 0.0 0.00 0.03 0.03 86 1031.4
20260505071853 10 41 0.0 0.0 0.00 0.03 0.03 86 1031.4
20260505071350 10 41 0.0 0.0 0.00 0.03 0.03 86 1031.4
20260505070851 11 40 0.0 0.0 0.00 0.03 0.03 86 1031.4
20260505070351 11 40 0.0 0.0 0.00 0.03 0.03 85 1031.5
20260505065852 11 40 0.0 0.0 0.00 0.03 0.03 85 1031.5
20260505064349 11 40 0.0 0.0 0.00 0.03 0.03 84 1031.5
20260505063846 11 41 0.0 0.0 0.00 0.03 0.03 84 1031.4
20260505063345 11 41 0.0 0.0 0.00 0.03 0.03 84 1031.5
20260505062346 11 40 0.0 0.0 0.00 0.03 0.03 83 1031.4
20260505061840 11 41 0.0 0.0 0.00 0.03 0.03 83 1031.5
20260505060340 12 41 0.0 0.0 0.00 0.03 0.03 82 1031.2
20260505055841 12 41 0.0 0.0 0.00 0.03 0.03 82 1031.2
20260505055339 12 40 0.0 0.0 0.00 0.03 0.03 82 1031.1
20260505054838 12 40 0.0 0.0 0.00 0.03 0.03 81 1031.2
20260505054336 12 41 0.0 0.0 0.00 0.03 0.03 81 1031.3
20260505053334 12 40 0.0 0.0 0.00 0.03 0.03 81 1031.0